Back to catalog

COSMOS 684

AliveMilitaryLEO
NORAD 7442·PAYLOAD·🇷🇺 Russia

Launched Sep 19, 1974 from Plesetsk Cosmodrome

Loading…

Next Passes (next 24 hours)

TLE

FreshSource: Space-Track

Epoch: Sep 14, 2026, 13:48 UTC

1 07442U 74072H   26257.57544860  .00000002  00000-0  10733-3 0  9997
2 07442  74.0350 303.1724 0032104  44.3494 109.8044 12.55723796382967

Track COSMOS 684 in real time with AllMySat

Download on the App Store